Powrót do katalogu

FENGYUN 1C DEB

AktywnyLEO
NORAD 32168·DEBRIS·🇨🇳 China

Wystrzelony May 10, 1999 z Taiyuan Satellite Launch Center

Loading…

Następne Przeloty (najbliższe 24 godziny)

TLE

ŚwieżeSource: Space-Track

Epoka: Sep 13, 2026, 15:52 UTC

1 32168U 99025CTN 26256.66131795  .00003205  00000-0  21677-2 0  9999
2 32168 101.6574  37.9732 0245368 280.7014  76.6595 13.87838238672911

Śledź FENGYUN 1C DEB w czasie rzeczywistym z AllMySat

Download on the App Store